Location: Boiro
(42.6475°N, 8.8834°W)
Time: 09:09:06
(UTC+01:00)

Explorer 11/Cluster Stage 4 - Pass Details

Date: 30 November 2021
Orbit: 467 x 1255 km, 28.8° (Epoch: 19 January)

Event Time Altitude Azimuth Distance (km) Brightness Sun altitude
Rises 10:27:35 0° 257° (WSW) 4,192 10.0 13.9°
Reaches altitude 10° 10:32:42 10° 231° (SW) 3,172 9.7 14.5°
Maximum altitude 10:35:43 12° 209° (SSW) 2,926 9.9 14.8°
Drops below altitude 10° 10:38:37 10° 186° (S) 3,039 10.4 15.2°
Sets 10:43:17 0° 159° (SSE) 3,837 11.6 15.7°
